Home > Weather > Prešov > Past weeks

Flag for Slovakia Weather for the Past 2 Weeks in Prešov, Slovakia

Now
66 °F

Passing clouds.


Feels Like: 66 °F
Forecast: 48 / 65 °F
Wind: 14 mph from North

Location: Kosice - Barca

Current Time: May 2, 2016 at 2:59:19 PM

Latest Report: May 2, 2016 at 2:30 PM


Visibility: N/A

Pressure: 30.04 "Hg

Humidity: 52%

Dew Point: 48 °F

Location of PrešovLocation

Historic Weather in Prešov — Graph

°F

Prešov Temperature Yesterday

Maximum temperature yesterday: 66 °F (at 12:30 PM)
Minimum temperature yesterday: 43 °F (at 4:00 AM)
Average temperature yesterday: 58 °F

High & Low Weather Summary for the Past Weeks

 TemperatureHumidityPressure
High73 °F (Apr 17, 3:00 PM)100% (Apr 27, 9:30 PM)30.30 "Hg (Apr 27, 9:30 PM)
Low34 °F (Apr 21, 6:00 AM)26% (Apr 26, 3:30 PM)29.53 "Hg (Apr 24, 3:30 AM)
Average51 °F62%29.94 "Hg
* Reported Apr 17 2:00 PM — May 2 2:00 PM, Prešov, Weather by CustomWeather, © 2016

Note: Actual official high and low records may vary slightly from our data, if they occured in-between our weather recording intervals... More about our weather records

Advertising

Prešov Weather History for the Previous 24 Hours

Scroll right to see more
 ConditionsComfort  
Time TempWeatherWind HumidityBarometerVisibility
2:00 PM
Mon, May 2
66 °FPassing clouds.15 mph49%30.04 "HgN/A
1:30 PM66 °FPassing clouds.13 mph52%30.04 "HgN/A
1:00 PM66 °FPassing clouds.14 mph52%30.04 "HgN/A
12:30 PM66 °FPassing clouds.13 mph52%30.04 "HgN/A
12:00 PM64 °FPassing clouds.14 mph52%30.04 "HgN/A
11:30 AM64 °FPassing clouds.12 mph52%30.07 "HgN/A
11:00 AM64 °FPassing clouds.12 mph56%30.07 "HgN/A
10:30 AM63 °FSunny.13 mph59%30.07 "Hg10 mi
10:00 AM63 °FSunny.13 mph59%30.07 "Hg10 mi
9:30 AM61 °FSunny.12 mph63%30.07 "Hg10 mi
9:00 AM59 °FSunny.14 mph63%30.07 "Hg10 mi
8:30 AM59 °FSunny.13 mph63%30.07 "Hg10 mi
7:00 AM57 °FSunny.13 mph72%30.04 "Hg10 mi
6:30 AM57 °FSunny.13 mph67%30.04 "Hg10 mi
6:00 AM57 °FClear.12 mph67%30.04 "Hg10 mi
5:00 AM57 °FClear.15 mph67%30.04 "Hg10 mi
4:30 AM57 °FClear.13 mph72%30.04 "Hg10 mi
4:00 AM57 °FClear.13 mph72%30.04 "Hg10 mi
3:30 AM59 °FClear.9 mph63%30.04 "Hg10 mi
3:00 AM59 °FClear.9 mph68%30.04 "Hg10 mi
2:30 AM59 °FClear.10 mph68%30.04 "Hg10 mi
2:00 AM59 °FClear.12 mph68%30.04 "Hg10 mi
1:30 AM59 °FClear.12 mph68%30.04 "Hg10 mi
1:00 AM59 °FClear.13 mph68%30.04 "Hg10 mi
12:30 AM59 °FClear.12 mph68%30.04 "Hg10 mi
12:00 AM59 °FClear.10 mph63%30.04 "Hg10 mi
11:00 PM
Sun, May 1
61 °FClear.12 mph59%30.04 "Hg10 mi
10:30 PM61 °FClear.12 mph59%30.04 "Hg10 mi
10:00 PM61 °FClear.15 mph59%30.04 "Hg10 mi
9:30 PM61 °FClear.14 mph59%30.04 "Hg10 mi
9:00 PM61 °FClear.14 mph59%30.07 "Hg10 mi
8:30 PM63 °FSunny.10 mph56%30.04 "Hg10 mi
8:00 PM63 °FSunny.10 mph56%30.04 "Hg10 mi
7:30 PM63 °FSunny.10 mph52%30.04 "Hg10 mi
7:00 PM64 °FSunny.8 mph49%30.04 "Hg10 mi
6:30 PM64 °FSunny.8 mph52%30.04 "Hg10 mi
6:00 PM66 °FSunny.9 mph46%30.04 "Hg10 mi
5:30 PM66 °FPassing clouds.6 mph46%30.04 "HgN/A
5:00 PM66 °FPassing clouds.6 mph46%30.04 "HgN/A
4:30 PM66 °FSunny.8 mph46%30.04 "Hg10 mi
4:00 PM66 °FPassing clouds.6 mph40%30.04 "HgN/A
3:30 PM66 °FPassing clouds.8 mph46%30.04 "HgN/A
3:00 PM66 °FPassing clouds.6 mph40%30.04 "HgN/A
2:30 PM66 °FPassing clouds.8 mph43%30.04 "HgN/A
2:00 PM66 °FPassing clouds.7 mph40%30.07 "HgN/A
Weather by CustomWeather, © 2016

See weather overviewHow to use our weather pages